Hourly Data Report for July 05, 2021

FISHER BRANCH (AUT)
MANITOBA
Current Station Operator: ECCC - MSC

51°05'00.100" N
97°33'16.200" W
253.00 m
50309J6
71442
WSZ

Download Data

Hourly Data (July 2021)
Hourly Data Report for July 5, 2021
TIME
LST
Temp Definition
°C
Dew Point Definition
°C
Rel Hum Definition
%
Precip. Amount Definition
mm

Wind Dir Definition
10's deg

Wind Spd Definition
km/h
Visibility Definition
km
Stn Press Definition
kPa
Hmdx Definition


Wind Chill Definition


Weather Definition


00:00 17.6 15.6 88 0.0 33 4   98.06     LegendNANA
01:00 17.3 15.7 90 0.0 32 7   98.11     LegendNANA
02:00 16.3 15.0 92 0.0 33 7   98.11     LegendNANA
03:00 15.6 14.7 94 0.0 32 5   98.16     LegendNANA
04:00 15.3 14.2 93 0.0 33 6   98.17     LegendNANA
05:00 16.5 15.2 92 0.0 33 9   98.27     LegendNANA
06:00 16.6 14.2 86 0.0 35 14   98.37     LegendNANA
07:00 17.1 14.0 82 0.0 34 15   98.42     LegendNANA
08:00 17.6 12.6 73 0.0 35 19   98.48     LegendNANA
09:00 17.7 12.4 71 0.0 35 21   98.52     LegendNANA
10:00 15.8 12.0 78 0.0 35 15   98.61     LegendNANA
11:00 16.8 11.8 72 0.0 34 18   98.65     LegendNANA
12:00 15.9 10.4 70 0.0 35 17   98.73     LegendNANA
13:00 15.5 10.5 72 0.0 36 16   98.76     LegendNANA
14:00 16.8 10.2 65 0.0 35 17   98.77     LegendNANA
15:00 17.3 9.9 62 0.0 35 22   98.81     LegendNANA
16:00 18.4 10.0 58 0.0 35 24   98.84     LegendNANA
17:00 16.8 9.2 61 0.0 34 23   98.89     LegendNANA
18:00 16.1 9.3 64 0.0 35 22   98.93     LegendNANA
19:00 15.0 8.9 67 0.0 35 18   98.97     LegendNANA
20:00 14.5 8.7 68 0.0 33 17   99.00     LegendNANA
21:00 14.2 8.6 69 0.0 35 13   99.06     LegendNANA
22:00 13.9 8.6 71 0.0 1 13   99.14     LegendNANA
23:00 13.5 7.7 68 0.0 1 8   99.14     LegendNANA

Notes on Data Quality.

Legend

  • E = Estimated
  • M = Missing
  • NA = Not Available*
  • [empty] = Indicates an unobserved value
Date modified: